| time (UTC) | temp F | wind direction | speed knots | gust knots | rain 1hr in | rain 24hr in | rain mn in | humidity % | barometer mb |
| 20260510133040 | 71 | 76 | 1.7 | 5.2 | 0.00 | 0.00 | 0.00 | 25 | 1009.0 |
| 20260510132524 | 71 | 123 | 1.7 | 5.2 | 0.00 | 0.00 | 0.00 | 26 | 1008.9 |
| 20260510132025 | 70 | 158 | 1.7 | 5.2 | 0.00 | 0.00 | 0.00 | 26 | 1008.8 |
| 20260510131540 | 70 | 114 | 1.7 | 5.2 | 0.00 | 0.00 | 0.00 | 27 | 1008.7 |
| 20260510131025 | 69 | 109 | 0.9 | 5.2 | 0.00 | 0.00 | 0.00 | 28 | 1008.6 |
| 20260510130524 | 69 | 93 | 1.7 | 5.2 | 0.00 | 0.00 | 0.00 | 27 | 1008.6 |
| 20260510130040 | 68 | 77 | 1.7 | 3.5 | 0.00 | 0.00 | 0.00 | 29 | 1008.5 |
| 20260510125524 | 68 | 0 | 0.9 | 2.6 | 0.00 | 0.00 | 0.00 | 30 | 1008.3 |
| 20260510125028 | 68 | 111 | 0.0 | 2.6 | 0.00 | 0.00 | 0.00 | 30 | 1008.3 |
| 20260510124544 | 68 | 111 | 0.0 | 2.6 | 0.00 | 0.00 | 0.00 | 30 | 1008.3 |
| 20260510124025 | 68 | 111 | 0.9 | 2.6 | 0.00 | 0.00 | 0.00 | 30 | 1008.2 |
| 20260510123524 | 68 | 116 | 0.9 | 2.6 | 0.00 | 0.00 | 0.00 | 30 | 1008.2 |
| 20260510123045 | 68 | 142 | 0.0 | 2.6 | 0.00 | 0.00 | 0.00 | 29 | 1008.2 |
| 20260510122525 | 68 | 142 | 0.9 | 2.6 | 0.00 | 0.00 | 0.00 | 29 | 1008.2 |
| 20260510122024 | 69 | 152 | 0.0 | 2.6 | 0.00 | 0.00 | 0.00 | 29 | 1008.1 |
| 20260510121540 | 69 | 0 | 0.9 | 2.6 | 0.00 | 0.00 | 0.00 | 28 | 1008.1 |
| 20260510121024 | 69 | 0 | 0.9 | 2.6 | 0.00 | 0.00 | 0.00 | 28 | 1008.0 |
| 20260510120527 | 69 | 108 | 1.7 | 2.6 | 0.00 | 0.00 | 0.00 | 28 | 1008.0 |
| 20260510120041 | 69 | 139 | 0.0 | 2.6 | 0.00 | 0.00 | 0.00 | 28 | 1008.0 |
| 20260510115523 | 69 | 139 | 0.9 | 2.6 | 0.00 | 0.00 | 0.00 | 28 | 1008.1 |
| 20260510115027 | 70 | 139 | 0.0 | 2.6 | 0.00 | 0.00 | 0.00 | 28 | 1008.1 |
| 20260510114540 | 70 | 139 | 0.9 | 2.6 | 0.00 | 0.00 | 0.00 | 28 | 1008.0 |
| 20260510114025 | 70 | 114 | 0.9 | 2.6 | 0.00 | 0.00 | 0.00 | 28 | 1007.9 |
| 20260510113524 | 70 | 109 | 0.9 | 2.6 | 0.00 | 0.00 | 0.00 | 28 | 1008.0 |
| 20260510113038 | 70 | 122 | 0.9 | 2.6 | 0.00 | 0.00 | 0.00 | 28 | 1008.0 |
| 20260510112524 | 71 | 122 | 0.9 | 1.7 | 0.00 | 0.00 | 0.00 | 28 | 1008.1 |
| 20260510112023 | 71 | 122 | 0.9 | 1.7 | 0.00 | 0.00 | 0.00 | 28 | 1008.1 |
| 20260510111553 | 71 | 122 | 0.0 | 1.7 | 0.00 | 0.00 | 0.00 | 27 | 1008.1 |
| 20260510111024 | 72 | 0 | 0.0 | 1.7 | 0.00 | 0.00 | 0.00 | 26 | 1008.0 |
| 20260510110524 | 72 | 0 | 0.0 | 1.7 | 0.00 | 0.00 | 0.00 | 26 | 1007.9 |
| 20260510110041 | 73 | 0 | 0.9 | 4.3 | 0.00 | 0.00 | 0.00 | 25 | 1007.8 |
| 20260510105524 | 73 | 122 | 0.9 | 4.3 | 0.00 | 0.00 | 0.00 | 25 | 1007.7 |
| 20260510105024 | 73 | 155 | 1.7 | 4.3 | 0.00 | 0.00 | 0.00 | 24 | 1007.6 |
| 20260510104549 | 74 | 168 | 1.7 | 4.3 | 0.00 | 0.00 | 0.00 | 24 | 1007.6 |
| 20260510104024 | 74 | 157 | 2.6 | 4.3 | 0.00 | 0.00 | 0.00 | 24 | 1007.7 |
| 20260510103524 | 75 | 148 | 1.7 | 3.5 | 0.00 | 0.00 | 0.00 | 23 | 1007.6 |
| 20260510103043 | 75 | 147 | 0.9 | 4.3 | 0.00 | 0.00 | 0.00 | 23 | 1007.6 |
| 20260510102524 | 75 | 148 | 1.7 | 4.3 | 0.00 | 0.00 | 0.00 | 22 | 1007.5 |
| 20260510102026 | 76 | 158 | 0.9 | 4.3 | 0.00 | 0.00 | 0.00 | 22 | 1007.4 |
| 20260510101539 | 76 | 150 | 1.7 | 4.3 | 0.00 | 0.00 | 0.00 | 22 | 1007.4 |
| 20260510101024 | 76 | 178 | 0.9 | 4.3 | 0.00 | 0.00 | 0.00 | 21 | 1007.4 |
| 20260510100524 | 76 | 232 | 0.9 | 6.1 | 0.00 | 0.00 | 0.00 | 21 | 1007.4 |
| 20260510100035 | 76 | 143 | 1.7 | 6.1 | 0.00 | 0.00 | 0.00 | 21 | 1007.3 |
| 20260510095524 | 76 | 155 | 1.7 | 6.1 | 0.00 | 0.00 | 0.00 | 21 | 1007.3 |
| 20260510095024 | 77 | 153 | 2.6 | 7.0 | 0.00 | 0.00 | 0.00 | 21 | 1007.3 |
| 20260510094542 | 77 | 148 | 1.7 | 7.8 | 0.00 | 0.00 | 0.00 | 21 | 1007.3 |
| 20260510094024 | 77 | 154 | 4.3 | 7.8 | 0.00 | 0.00 | 0.00 | 21 | 1007.3 |
| 20260510093524 | 76 | 143 | 3.5 | 7.0 | 0.00 | 0.00 | 0.00 | 21 | 1007.2 |
| 20260510093040 | 75 | 142 | 2.6 | 5.2 | 0.00 | 0.00 | 0.00 | 22 | 1007.3 |
| 20260510092524 | 75 | 157 | 1.7 | 6.1 | 0.00 | 0.00 | 0.00 | 23 | 1007.2 |
| 20260510092024 | 75 | 148 | 2.6 | 7.8 | 0.00 | 0.00 | 0.00 | 23 | 1007.2 |
| 20260510091539 | 75 | 147 | 2.6 | 7.8 | 0.00 | 0.00 | 0.00 | 23 | 1007.2 |
| 20260510091024 | 75 | 163 | 4.3 | 7.8 | 0.00 | 0.00 | 0.00 | 24 | 1007.2 |
| 20260510090523 | 75 | 140 | 1.7 | 4.3 | 0.00 | 0.00 | 0.00 | 24 | 1007.2 |
| 20260510090039 | 75 | 149 | 0.9 | 3.5 | 0.00 | 0.00 | 0.00 | 24 | 1007.1 |
| 20260510085523 | 75 | 98 | 0.9 | 3.5 | 0.00 | 0.00 | 0.00 | 24 | 1007.0 |
| 20260510085024 | 75 | 126 | 0.9 | 3.5 | 0.00 | 0.00 | 0.00 | 24 | 1007.0 |
| 20260510084539 | 75 | 161 | 1.7 | 4.3 | 0.00 | 0.00 | 0.00 | 24 | 1007.0 |
| 20260510084100 | 75 | 159 | 1.7 | 5.2 | 0.00 | 0.00 | 0.00 | 25 | 1007.0 |
| 20260510083529 | 75 | 127 | 1.7 | 5.2 | 0.00 | 0.00 | 0.00 | 26 | 1007.0 |
| 20260510083041 | 75 | 142 | 0.9 | 3.5 | 0.00 | 0.00 | 0.00 | 26 | 1007.0 |
| 20260510082525 | 75 | 117 | 0.0 | 0.0 | 0.00 | 0.00 | 0.00 | 26 | 1007.0 |
| 20260510082024 | 75 | 0 | 0.0 | 0.0 | 0.00 | 0.00 | 0.00 | 26 | 1007.1 |
| 20260510081543 | 75 | 0 | 0.0 | 0.0 | 0.00 | 0.00 | 0.00 | 27 | 1007.1 |
| 20260510081024 | 75 | 0 | 0.0 | 0.0 | 0.00 | 0.00 | 0.00 | 27 | 1007.1 |
| 20260510080523 | 75 | 0 | 0.0 | 0.9 | 0.00 | 0.00 | 0.00 | 28 | 1007.0 |
| 20260510080039 | 75 | 0 | 0.0 | 1.7 | 0.00 | 0.00 | 0.00 | 28 | 1007.0 |
| 20260510075525 | 75 | 0 | 0.0 | 1.7 | 0.00 | 0.00 | 0.00 | 29 | 1007.1 |
| 20260510075023 | 76 | 123 | 0.0 | 2.6 | 0.00 | 0.00 | 0.00 | 28 | 1007.1 |
| 20260510074541 | 76 | 123 | 0.9 | 2.6 | 0.00 | 0.00 | 0.00 | 28 | 1007.0 |
| 20260510074023 | 76 | 205 | 0.0 | 1.7 | 0.00 | 0.00 | 0.00 | 28 | 1007.0 |
| 20260510073525 | 76 | 205 | 0.0 | 2.6 | 0.00 | 0.00 | 0.00 | 27 | 1007.0 |
| 20260510073038 | 76 | 205 | 0.9 | 2.6 | 0.00 | 0.00 | 0.00 | 28 | 1006.9 |
| 20260510072524 | 76 | 0 | 0.0 | 0.0 | 0.00 | 0.00 | 0.00 | 27 | 1006.9 |
| 20260510072024 | 76 | 0 | 0.0 | 0.0 | 0.00 | 0.00 | 0.00 | 28 | 1006.8 |
| 20260510071543 | 77 | 0 | 0.0 | 0.9 | 0.00 | 0.00 | 0.00 | 28 | 1006.9 |
| 20260510071024 | 77 | 0 | 0.0 | 0.9 | 0.00 | 0.00 | 0.00 | 27 | 1006.9 |
| 20260510070527 | 77 | 0 | 0.0 | 0.9 | 0.00 | 0.00 | 0.00 | 27 | 1006.9 |
| 20260510070042 | 77 | 205 | 0.0 | 1.7 | 0.00 | 0.00 | 0.00 | 27 | 1006.9 |
| 20260510065524 | 78 | 205 | 0.0 | 1.7 | 0.00 | 0.00 | 0.00 | 27 | 1006.9 |
| 20260510065023 | 78 | 0 | 0.0 | 1.7 | 0.00 | 0.00 | 0.00 | 26 | 1006.8 |
| 20260510064538 | 78 | 205 | 0.0 | 0.9 | 0.00 | 0.00 | 0.00 | 26 | 1006.8 |
| 20260510064025 | 78 | 0 | 0.0 | 2.6 | 0.00 | 0.00 | 0.00 | 26 | 1006.8 |
| 20260510063525 | 79 | 0 | 0.0 | 2.6 | 0.00 | 0.00 | 0.00 | 24 | 1006.8 |
| 20260510063040 | 79 | 0 | 0.0 | 1.7 | 0.00 | 0.00 | 0.00 | 25 | 1006.8 |
| 20260510062522 | 79 | 0 | 0.0 | 1.7 | 0.00 | 0.00 | 0.00 | 24 | 1006.6 |
| 20260510062025 | 80 | 0 | 0.0 | 3.5 | 0.00 | 0.00 | 0.00 | 24 | 1006.6 |
| 20260510061540 | 80 | 0 | 0.0 | 3.5 | 0.00 | 0.00 | 0.00 | 23 | 1006.6 |
| 20260510061025 | 80 | 201 | 0.0 | 2.6 | 0.00 | 0.00 | 0.00 | 24 | 1006.8 |
| 20260510060526 | 80 | 187 | 0.0 | 2.6 | 0.00 | 0.00 | 0.00 | 23 | 1006.8 |
| 20260510060050 | 81 | 0 | 0.0 | 0.0 | 0.00 | 0.00 | 0.00 | 23 | 1006.6 |
| 20260510055522 | 81 | 0 | 0.0 | 0.0 | 0.00 | 0.00 | 0.00 | 23 | 1006.6 |
| 20260510055024 | 82 | 0 | 0.0 | 0.0 | 0.00 | 0.00 | 0.00 | 22 | 1006.5 |
| 20260510054539 | 82 | 0 | 0.0 | 0.0 | 0.00 | 0.00 | 0.00 | 21 | 1006.5 |
| 20260510054023 | 83 | 0 | 0.0 | 0.9 | 0.00 | 0.00 | 0.00 | 22 | 1006.5 |
| 20260510053522 | 84 | 0 | 0.0 | 1.7 | 0.00 | 0.00 | 0.00 | 20 | 1006.4 |
| 20260510053038 | 84 | 0 | 0.0 | 1.7 | 0.00 | 0.00 | 0.00 | 19 | 1006.2 |
| 20260510052522 | 84 | 251 | 0.0 | 1.7 | 0.00 | 0.00 | 0.00 | 19 | 1006.2 |
| 20260510052025 | 84 | 251 | 0.9 | 1.7 | 0.00 | 0.00 | 0.00 | 19 | 1006.3 |
| 20260510051557 | 84 | 242 | 0.9 | 1.7 | 0.00 | 0.00 | 0.00 | 19 | 1006.6 |
| 20260510051025 | 85 | 240 | 0.0 | 1.7 | 0.00 | 0.00 | 0.00 | 19 | 1006.5 |
| 20260510050525 | 85 | 240 | 0.9 | 1.7 | 0.00 | 0.00 | 0.00 | 18 | 1006.4 |
| 20260510050043 | 85 | 254 | 0.9 | 2.6 | 0.00 | 0.00 | 0.00 | 19 | 1006.4 |
| 20260510045529 | 85 | 242 | 0.9 | 2.6 | 0.00 | 0.00 | 0.00 | 18 | 1006.3 |
| 20260510045025 | 85 | 254 | 0.0 | 1.7 | 0.00 | 0.00 | 0.00 | 19 | 1006.2 |
| 20260510044542 | 86 | 0 | 0.0 | 1.7 | 0.00 | 0.00 | 0.00 | 18 | 1006.2 |
| 20260510044027 | 86 | 254 | 0.0 | 1.7 | 0.00 | 0.00 | 0.00 | 18 | 1006.2 |
| 20260510043523 | 86 | 254 | 0.0 | 1.7 | 0.00 | 0.00 | 0.00 | 19 | 1006.2 |
| 20260510043057 | 87 | 0 | 0.0 | 1.7 | 0.00 | 0.00 | 0.00 | 17 | 1006.0 |
| 20260510042523 | 87 | 254 | 0.0 | 1.7 | 0.00 | 0.00 | 0.00 | 17 | 1006.2 |
| 20260510042025 | 87 | 254 | 0.0 | 1.7 | 0.00 | 0.00 | 0.00 | 17 | 1006.1 |
| 20260510041539 | 88 | 254 | 0.0 | 1.7 | 0.00 | 0.00 | 0.00 | 16 | 1006.0 |
| 20260510041022 | 88 | 256 | 0.0 | 1.7 | 0.00 | 0.00 | 0.00 | 16 | 1006.0 |
| 20260510040525 | 88 | 256 | 0.0 | 1.7 | 0.00 | 0.00 | 0.00 | 16 | 1006.0 |
| 20260510040039 | 89 | 256 | 0.9 | 1.7 | 0.00 | 0.00 | 0.00 | 15 | 1005.9 |
| 20260510035524 | 89 | 257 | 0.0 | 1.7 | 0.00 | 0.00 | 0.00 | 15 | 1005.9 |
| 20260510035027 | 90 | 0 | 0.0 | 1.7 | 0.00 | 0.00 | 0.00 | 15 | 1005.9 |
| 20260510034545 | 90 | 0 | 0.0 | 1.7 | 0.00 | 0.00 | 0.00 | 14 | 1005.7 |
| 20260510034024 | 91 | 258 | 0.9 | 1.7 | 0.00 | 0.00 | 0.00 | 14 | 1005.8 |
| 20260510033523 | 91 | 266 | 0.0 | 3.5 | 0.00 | 0.00 | 0.00 | 13 | 1005.6 |
| 20260510033041 | 92 | 0 | 0.0 | 3.5 | 0.00 | 0.00 | 0.00 | 13 | 1005.6 |
| 20260510032527 | 92 | 262 | 0.9 | 3.5 | 0.00 | 0.00 | 0.00 | 13 | 1005.6 |
| 20260510032024 | 92 | 302 | 1.7 | 3.5 | 0.00 | 0.00 | 0.00 | 13 | 1005.5 |
| 20260510031607 | 92 | 294 | 0.9 | 2.6 | 0.00 | 0.00 | 0.00 | 13 | 1005.4 |
| 20260510031023 | 93 | 300 | 0.9 | 2.6 | 0.00 | 0.00 | 0.00 | 13 | 1005.3 |
| 20260510030524 | 93 | 296 | 0.9 | 2.6 | 0.00 | 0.00 | 0.00 | 12 | 1005.2 |
| 20260510030040 | 93 | 288 | 0.9 | 2.6 | 0.00 | 0.00 | 0.00 | 12 | 1005.3 |
| 20260510025524 | 94 | 266 | 0.9 | 3.5 | 0.00 | 0.00 | 0.00 | 12 | 1005.2 |
| 20260510025027 | 94 | 281 | 0.9 | 3.5 | 0.00 | 0.00 | 0.00 | 12 | 1005.2 |
| 20260510024537 | 94 | 273 | 0.9 | 3.5 | 0.00 | 0.00 | 0.00 | 12 | 1005.1 |
| 20260510024024 | 95 | 284 | 0.9 | 7.0 | 0.00 | 0.00 | 0.00 | 12 | 1005.1 |
| 20260510023524 | 95 | 298 | 1.7 | 7.0 | 0.00 | 0.00 | 0.00 | 12 | 1005.0 |
| 20260510023047 | 95 | 0 | 1.7 | 5.2 | 0.00 | 0.00 | 0.00 | 11 | 1005.0 |
| 20260510022524 | 96 | 307 | 1.7 | 5.2 | 0.00 | 0.00 | 0.00 | 11 | 1004.9 |
| 20260510022024 | 96 | 309 | 1.7 | 7.8 | 0.00 | 0.00 | 0.00 | 11 | 1004.9 |
| 20260510021543 | 96 | 306 | 1.7 | 7.8 | 0.00 | 0.00 | 0.00 | 11 | 1004.9 |
| 20260510021023 | 97 | 284 | 2.6 | 7.8 | 0.00 | 0.00 | 0.00 | 11 | 1004.8 |
| 20260510020523 | 97 | 275 | 1.7 | 7.8 | 0.00 | 0.00 | 0.00 | 11 | 1004.7 |
| 20260510020039 | 98 | 296 | 2.6 | 7.8 | 0.00 | 0.00 | 0.00 | 11 | 1004.6 |
| 20260510015524 | 98 | 292 | 2.6 | 7.8 | 0.00 | 0.00 | 0.00 | 11 | 1004.6 |
| 20260510015024 | 98 | 281 | 2.6 | 7.8 | 0.00 | 0.00 | 0.00 | 10 | 1004.6 |
| 20260510014535 | 98 | 235 | 2.6 | 7.8 | 0.00 | 0.00 | 0.00 | 10 | 1004.6 |
| 20260510014023 | 99 | 238 | 2.6 | 8.7 | 0.00 | 0.00 | 0.00 | 10 | 1004.6 |
| 20260510013525 | 99 | 209 | 3.5 | 8.7 | 0.00 | 0.00 | 0.00 | 10 | 1004.5 |
| 20260510013042 | 99 | 261 | 2.6 | 8.7 | 0.00 | 0.00 | 0.00 | 10 | 1004.6 |
| 20260510012527 | 99 | 296 | 2.6 | 10.4 | 0.00 | 0.00 | 0.00 | 10 | 1004.6 |
| 20260510012024 | 99 | 307 | 2.6 | 10.4 | 0.00 | 0.00 | 0.00 | 10 | 1004.7 |
| 20260510011553 | 99 | 288 | 4.3 | 10.4 | 0.00 | 0.00 | 0.00 | 10 | 1004.7 |
| 20260510011027 | 100 | 300 | 2.6 | 9.6 | 0.00 | 0.00 | 0.00 | 10 | 1004.6 |
| 20260510010523 | 100 | 313 | 3.5 | 9.6 | 0.00 | 0.00 | 0.00 | 10 | 1004.6 |
| 20260510010049 | 100 | 272 | 4.3 | 9.6 | 0.00 | 0.00 | 0.00 | 10 | 1004.6 |
| 20260510005524 | 100 | 275 | 2.6 | 8.7 | 0.00 | 0.00 | 0.00 | 10 | 1004.6 |
| 20260510005025 | 100 | 0 | 4.3 | 9.6 | 0.00 | 0.00 | 0.00 | 10 | 1004.7 |
| 20260510004539 | 100 | 309 | 3.5 | 9.6 | 0.00 | 0.00 | 0.00 | 10 | 1004.7 |
| 20260510004027 | 100 | 324 | 2.6 | 9.6 | 0.00 | 0.00 | 0.00 | 9 | 1004.7 |
| 20260510003524 | 100 | 273 | 1.7 | 9.6 | 0.00 | 0.00 | 0.00 | 9 | 1004.6 |
| 20260510003041 | 100 | 297 | 3.5 | 11.3 | 0.00 | 0.00 | 0.00 | 9 | 1004.7 |
| 20260510002523 | 101 | 295 | 2.6 | 11.3 | 0.00 | 0.00 | 0.00 | 9 | 1004.7 |
| 20260510002027 | 100 | 283 | 4.3 | 9.6 | 0.00 | 0.00 | 0.00 | 9 | 1004.8 |
| 20260510001540 | 100 | 258 | 0.9 | 10.4 | 0.00 | 0.00 | 0.00 | 9 | 1004.8 |
| 20260510001024 | 101 | 304 | 3.5 | 10.4 | 0.00 | 0.00 | 0.00 | 8 | 1004.7 |
| 20260510000524 | 101 | 269 | 3.5 | 9.6 | 0.00 | 0.00 | 0.00 | 9 | 1004.8 |
| 20260510000042 | 101 | 275 | 3.5 | 11.3 | 0.00 | 0.00 | 0.00 | 9 | 1004.7 |
| 20260509235522 | 101 | 238 | 2.6 | 11.3 | 0.00 | 0.00 | 0.00 | 9 | 1004.8 |
| 20260509235022 | 101 | 207 | 3.5 | 8.7 | 0.00 | 0.00 | 0.00 | 9 | 1004.8 |
| 20260509234538 | 101 | 252 | 2.6 | 13.9 | 0.00 | 0.00 | 0.00 | 9 | 1004.8 |
| 20260509234029 | 101 | 304 | 4.3 | 13.9 | 0.00 | 0.00 | 0.00 | 9 | 1004.9 |
| 20260509233525 | 102 | 298 | 2.6 | 8.7 | 0.00 | 0.00 | 0.00 | 10 | 1005.0 |
| 20260509233043 | 101 | 336 | 1.7 | 8.7 | 0.00 | 0.00 | 0.00 | 9 | 1005.0 |
| 20260509232524 | 102 | 283 | 1.7 | 7.0 | 0.00 | 0.00 | 0.00 | 10 | 1005.1 |
| 20260509232024 | 102 | 337 | 1.7 | 9.6 | 0.00 | 0.00 | 0.00 | 9 | 1005.1 |
| 20260509231544 | 102 | 209 | 3.5 | 9.6 | 0.00 | 0.00 | 0.00 | 9 | 1005.1 |
| 20260509231024 | 102 | 273 | 3.5 | 9.6 | 0.00 | 0.00 | 0.00 | 9 | 1005.1 |
| 20260509230522 | 102 | 244 | 2.6 | 8.7 | 0.00 | 0.00 | 0.00 | 9 | 1005.1 |
| 20260509230050 | 101 | 298 | 3.5 | 8.7 | 0.00 | 0.00 | 0.00 | 10 | 1005.2 |
| 20260509225526 | 102 | 319 | 2.6 | 7.8 | 0.00 | 0.00 | 0.00 | 11 | 1005.3 |
| 20260509225025 | 101 | 327 | 2.6 | 7.8 | 0.00 | 0.00 | 0.00 | 11 | 1005.2 |
| 20260509224535 | 101 | 340 | 2.6 | 7.8 | 0.00 | 0.00 | 0.00 | 11 | 1005.3 |
| 20260509224025 | 101 | 299 | 2.6 | 11.3 | 0.00 | 0.00 | 0.00 | 10 | 1005.4 |
| 20260509223524 | 101 | 352 | 5.2 | 11.3 | 0.00 | 0.00 | 0.00 | 10 | 1005.5 |
| 20260509223039 | 102 | 309 | 3.5 | 8.7 | 0.00 | 0.00 | 0.00 | 10 | 1005.5 |
| 20260509222523 | 102 | 338 | 1.7 | 7.8 | 0.00 | 0.00 | 0.00 | 10 | 1005.6 |
| 20260509222023 | 102 | 0 | 2.6 | 7.8 | 0.00 | 0.00 | 0.00 | 10 | 1005.7 |
| 20260509221540 | 101 | 324 | 3.5 | 7.8 | 0.00 | 0.00 | 0.00 | 10 | 1005.9 |
| 20260509221024 | 101 | 317 | 1.7 | 8.7 | 0.00 | 0.00 | 0.00 | 10 | 1005.9 |
| 20260509220525 | 101 | 325 | 3.5 | 8.7 | 0.00 | 0.00 | 0.00 | 10 | 1006.1 |
| 20260509220039 | 101 | 278 | 1.7 | 8.7 | 0.00 | 0.00 | 0.00 | 10 | 1006.0 |
| 20260509215526 | 101 | 333 | 2.6 | 8.7 | 0.00 | 0.00 | 0.00 | 10 | 1006.1 |
| 20260509215025 | 101 | 288 | 2.6 | 9.6 | 0.00 | 0.00 | 0.00 | 10 | 1006.2 |
| 20260509214537 | 101 | 316 | 3.5 | 9.6 | 0.00 | 0.00 | 0.00 | 10 | 1006.2 |
| 20260509214024 | 101 | 322 | 2.6 | 9.6 | 0.00 | 0.00 | 0.00 | 10 | 1006.2 |
| 20260509213524 | 101 | 0 | 0.9 | 9.6 | 0.00 | 0.00 | 0.00 | 10 | 1006.3 |
| 20260509213058 | 101 | 334 | 3.5 | 12.2 | 0.00 | 0.00 | 0.00 | 10 | 1006.4 |
| 20260509212524 | 102 | 331 | 2.6 | 12.2 | 0.00 | 0.00 | 0.00 | 11 | 1006.4 |
| 20260509212024 | 101 | 264 | 3.5 | 9.6 | 0.00 | 0.00 | 0.00 | 10 | 1006.4 |
| 20260509211606 | 101 | 311 | 2.6 | 7.8 | 0.00 | 0.00 | 0.00 | 10 | 1006.5 |
| 20260509211024 | 101 | 277 | 2.6 | 11.3 | 0.00 | 0.00 | 0.00 | 11 | 1006.5 |
| 20260509210524 | 101 | 348 | 3.5 | 11.3 | 0.00 | 0.00 | 0.00 | 11 | 1006.5 |
| 20260509210040 | 101 | 297 | 1.7 | 7.8 | 0.00 | 0.00 | 0.00 | 10 | 1006.6 |
| 20260509205525 | 100 | 247 | 1.7 | 7.8 | 0.00 | 0.00 | 0.00 | 10 | 1006.8 |
| 20260509205023 | 100 | 304 | 3.5 | 9.6 | 0.00 | 0.00 | 0.00 | 11 | 1007.0 |
| 20260509204551 | 100 | 250 | 3.5 | 9.6 | 0.00 | 0.00 | 0.00 | 11 | 1007.1 |
| 20260509204028 | 100 | 316 | 3.5 | 9.6 | 0.00 | 0.00 | 0.00 | 11 | 1007.2 |
| 20260509203524 | 100 | 242 | 1.7 | 8.7 | 0.00 | 0.00 | 0.00 | 11 | 1007.1 |
| 20260509203052 | 99 | 0 | 3.5 | 9.6 | 0.00 | 0.00 | 0.00 | 12 | 1007.3 |
| 20260509202524 | 99 | 350 | 0.9 | 9.6 | 0.00 | 0.00 | 0.00 | 12 | 1007.4 |
| 20260509202025 | 99 | 287 | 3.5 | 9.6 | 0.00 | 0.00 | 0.00 | 11 | 1007.5 |
| 20260509201544 | 99 | 318 | 3.5 | 8.7 | 0.00 | 0.00 | 0.00 | 11 | 1007.5 |
| 20260509201024 | 99 | 298 | 2.6 | 7.8 | 0.00 | 0.00 | 0.00 | 12 | 1007.6 |
| 20260509200526 | 98 | 299 | 1.7 | 7.8 | 0.00 | 0.00 | 0.00 | 12 | 1007.7 |
| 20260509200040 | 98 | 327 | 2.6 | 7.8 | 0.00 | 0.00 | 0.00 | 12 | 1007.8 |
| 20260509195523 | 98 | 271 | 2.6 | 7.8 | 0.00 | 0.00 | 0.00 | 12 | 1007.8 |
| 20260509195024 | 97 | 298 | 0.9 | 7.8 | 0.00 | 0.00 | 0.00 | 13 | 1007.8 |
| 20260509194542 | 97 | 302 | 2.6 | 8.7 | 0.00 | 0.00 | 0.00 | 12 | 1008.0 |
| 20260509194026 | 97 | 309 | 3.5 | 8.7 | 0.00 | 0.00 | 0.00 | 13 | 1008.0 |
| 20260509193525 | 97 | 286 | 2.6 | 8.7 | 0.00 | 0.00 | 0.00 | 13 | 1008.0 |
| 20260509193039 | 97 | 316 | 2.6 | 8.7 | 0.00 | 0.00 | 0.00 | 13 | 1008.1 |
| 20260509192523 | 97 | 277 | 0.0 | 7.8 | 0.00 | 0.00 | 0.00 | 13 | 1008.2 |
| 20260509192025 | 98 | 331 | 2.6 | 7.8 | 0.00 | 0.00 | 0.00 | 13 | 1008.2 |
| 20260509191539 | 97 | 204 | 0.9 | 7.0 | 0.00 | 0.00 | 0.00 | 13 | 1008.2 |
| 20260509191030 | 97 | 255 | 1.7 | 7.0 | 0.00 | 0.00 | 0.00 | 13 | 1008.3 |
| 20260509190524 | 96 | 14 | 1.7 | 8.7 | 0.00 | 0.00 | 0.00 | 13 | 1008.5 |
| 20260509190048 | 96 | 327 | 2.6 | 8.7 | 0.00 | 0.00 | 0.00 | 13 | 1008.4 |
| 20260509185524 | 96 | 342 | 1.7 | 8.7 | 0.00 | 0.00 | 0.00 | 13 | 1008.5 |
| 20260509185025 | 96 | 9 | 2.6 | 7.0 | 0.00 | 0.00 | 0.00 | 14 | 1008.6 |
| 20260509184540 | 96 | 259 | 0.9 | 5.2 | 0.00 | 0.00 | 0.00 | 14 | 1008.7 |
| 20260509184024 | 95 | 348 | 0.9 | 6.1 | 0.00 | 0.00 | 0.00 | 13 | 1008.7 |
| 20260509183526 | 95 | 303 | 1.7 | 6.1 | 0.00 | 0.00 | 0.00 | 13 | 1008.8 |
| 20260509183041 | 95 | 333 | 0.9 | 7.0 | 0.00 | 0.00 | 0.00 | 13 | 1008.8 |
| 20260509182524 | 95 | 254 | 1.7 | 7.8 | 0.00 | 0.00 | 0.00 | 13 | 1008.9 |
| 20260509182026 | 95 | 292 | 2.6 | 7.8 | 0.00 | 0.00 | 0.00 | 13 | 1008.9 |
| 20260509181539 | 96 | 325 | 1.7 | 4.3 | 0.00 | 0.00 | 0.00 | 14 | 1009.0 |
| 20260509181024 | 95 | 42 | 0.9 | 6.1 | 0.00 | 0.00 | 0.00 | 14 | 1009.2 |
| 20260509180524 | 94 | 252 | 0.9 | 6.1 | 0.00 | 0.00 | 0.00 | 15 | 1009.2 |
| 20260509180039 | 93 | 340 | 1.7 | 5.2 | 0.00 | 0.00 | 0.00 | 14 | 1009.2 |
| 20260509175524 | 94 | 0 | 1.7 | 7.0 | 0.00 | 0.00 | 0.00 | 15 | 1009.2 |
| 20260509175024 | 95 | 257 | 0.9 | 7.8 | 0.00 | 0.00 | 0.00 | 14 | 1009.3 |
| 20260509174550 | 95 | 256 | 1.7 | 7.8 | 0.00 | 0.00 | 0.00 | 14 | 1009.4 |
| 20260509174028 | 95 | 213 | 0.9 | 3.5 | 0.00 | 0.00 | 0.00 | 15 | 1009.4 |
| 20260509173523 | 94 | 114 | 0.9 | 4.3 | 0.00 | 0.00 | 0.00 | 15 | 1009.5 |
| 20260509173039 | 94 | 140 | 0.9 | 4.3 | 0.00 | 0.00 | 0.00 | 15 | 1009.5 |
| 20260509172525 | 94 | 151 | 0.9 | 6.1 | 0.00 | 0.00 | 0.00 | 15 | 1009.6 |
| 20260509172024 | 93 | 0 | 0.9 | 6.1 | 0.00 | 0.00 | 0.00 | 16 | 1009.6 |
| 20260509171539 | 93 | 84 | 1.7 | 6.1 | 0.00 | 0.00 | 0.00 | 15 | 1009.6 |
| 20260509171023 | 94 | 115 | 0.9 | 3.5 | 0.00 | 0.00 | 0.00 | 15 | 1009.6 |
| 20260509170524 | 93 | 103 | 0.0 | 2.6 | 0.00 | 0.00 | 0.00 | 15 | 1009.6 |
| 20260509170039 | 92 | 153 | 0.0 | 3.5 | 0.00 | 0.00 | 0.00 | 16 | 1009.7 |
| 20260509165523 | 92 | 5 | 0.0 | 5.2 | 0.00 | 0.00 | 0.00 | 17 | 1009.6 |
| 20260509165023 | 91 | 169 | 0.9 | 5.2 | 0.00 | 0.00 | 0.00 | 17 | 1009.6 |
| 20260509164535 | 91 | 147 | 0.9 | 5.2 | 0.00 | 0.00 | 0.00 | 17 | 1009.5 |
| 20260509164023 | 91 | 0 | 0.0 | 3.5 | 0.00 | 0.00 | 0.00 | 17 | 1009.6 |
| 20260509163524 | 91 | 208 | 0.9 | 3.5 | 0.00 | 0.00 | 0.00 | 17 | 1009.6 |
| 20260509163049 | 91 | 206 | 0.0 | 3.5 | 0.00 | 0.00 | 0.00 | 17 | 1009.6 |
| 20260509162524 | 90 | 96 | 0.0 | 3.5 | 0.00 | 0.00 | 0.00 | 18 | 1009.6 |
| 20260509162024 | 90 | 141 | 0.0 | 2.6 | 0.00 | 0.00 | 0.00 | 19 | 1009.6 |
| 20260509161542 | 89 | 0 | 0.9 | 2.6 | 0.00 | 0.00 | 0.00 | 18 | 1009.5 |
| 20260509161028 | 88 | 58 | 0.0 | 2.6 | 0.00 | 0.00 | 0.00 | 19 | 1009.6 |
| 20260509160524 | 88 | 202 | 0.0 | 2.6 | 0.00 | 0.00 | 0.00 | 19 | 1009.6 |
| 20260509160040 | 87 | 0 | 0.0 | 3.5 | 0.00 | 0.00 | 0.00 | 20 | 1009.6 |
| 20260509155524 | 87 | 0 | 0.9 | 3.5 | 0.00 | 0.00 | 0.00 | 20 | 1009.6 |
| 20260509155027 | 86 | 0 | 0.0 | 3.5 | 0.00 | 0.00 | 0.00 | 22 | 1009.6 |
| 20260509154540 | 85 | 78 | 0.9 | 3.5 | 0.00 | 0.00 | 0.00 | 21 | 1009.6 |
| 20260509154024 | 85 | 103 | 0.9 | 3.5 | 0.00 | 0.00 | 0.00 | 22 | 1009.6 |
| 20260509153524 | 84 | 76 | 0.9 | 3.5 | 0.00 | 0.00 | 0.00 | 23 | 1009.7 |
| 20260509153047 | 83 | 96 | 0.9 | 4.3 | 0.00 | 0.00 | 0.00 | 24 | 1009.7 |
| 20260509152524 | 83 | 0 | 0.9 | 4.3 | 0.00 | 0.00 | 0.00 | 25 | 1009.6 |
| 20260509152027 | 82 | 165 | 0.9 | 5.2 | 0.00 | 0.00 | 0.00 | 25 | 1009.7 |
| 20260509151536 | 81 | 137 | 0.9 | 5.2 | 0.00 | 0.00 | 0.00 | 25 | 1009.6 |
| 20260509151025 | 81 | 142 | 0.9 | 3.5 | 0.00 | 0.00 | 0.00 | 26 | 1009.6 |
| 20260509150528 | 80 | 159 | 0.9 | 5.2 | 0.00 | 0.00 | 0.00 | 27 | 1009.7 |
| 20260509150041 | 79 | 153 | 1.7 | 6.1 | 0.00 | 0.00 | 0.00 | 27 | 1009.6 |
| 20260509145525 | 79 | 153 | 1.7 | 6.1 | 0.00 | 0.00 | 0.00 | 27 | 1009.6 |
| 20260509145024 | 78 | 146 | 1.7 | 6.1 | 0.00 | 0.00 | 0.00 | 27 | 1009.5 |
| 20260509144539 | 78 | 128 | 1.7 | 6.1 | 0.00 | 0.00 | 0.00 | 27 | 1009.7 |
| 20260509144024 | 77 | 146 | 2.6 | 6.1 | 0.00 | 0.00 | 0.00 | 28 | 1009.6 |
| 20260509143525 | 77 | 184 | 1.7 | 6.1 | 0.00 | 0.00 | 0.00 | 29 | 1009.6 |
| 20260509143039 | 76 | 155 | 1.7 | 4.3 | 0.00 | 0.00 | 0.00 | 29 | 1009.4 |
| 20260509142523 | 76 | 171 | 0.9 | 4.3 | 0.00 | 0.00 | 0.00 | 29 | 1009.4 |
| 20260509142024 | 75 | 109 | 1.7 | 5.2 | 0.00 | 0.00 | 0.00 | 29 | 1009.3 |
| 20260509141539 | 74 | 102 | 0.9 | 5.2 | 0.00 | 0.00 | 0.00 | 29 | 1009.4 |
| 20260509141025 | 74 | 165 | 1.7 | 5.2 | 0.00 | 0.00 | 0.00 | 29 | 1009.4 |
| 20260509140524 | 74 | 155 | 0.9 | 3.5 | 0.00 | 0.00 | 0.00 | 30 | 1009.3 |
| 20260509140049 | 73 | 130 | 0.9 | 5.2 | 0.00 | 0.00 | 0.00 | 31 | 1009.3 |
| 20260509135527 | 72 | 109 | 1.7 | 5.2 | 0.00 | 0.00 | 0.00 | 31 | 1009.1 |
| 20260509135023 | 72 | 100 | 1.7 | 5.2 | 0.00 | 0.00 | 0.00 | 31 | 1009.1 |
| 20260509134549 | 71 | 98 | 1.7 | 5.2 | 0.00 | 0.00 | 0.00 | 32 | 1009.1 |
| 20260509134024 | 71 | 126 | 0.9 | 5.2 | 0.00 | 0.00 | 0.00 | 32 | 1009.1 |
| 20260509133524 | 70 | 117 | 1.7 | 5.2 | 0.00 | 0.00 | 0.00 | 32 | 1009.1 |